Location: Kutna Hora
(49.9500°N, 15.2670°E)
Time: 13:40:59
(UTC+02:00)

ISS - Pass Details

Date: 24 May 2019
Orbit: 408 x 418 km, 51.6° (Epoch: 19 June)

Event Time Altitude Azimuth Distance (km) Brightness Sun altitude
Rises 01:00:25 0° 288° (WNW) 2,365 0.3 -19.4°
Reaches altitude 10° 01:02:32 10° 284° (WNW) 1,501 -0.8 -19.4°
Enters shadow 01:04:43 35° 265° (W) 697 -2.8 -19.4°
